Weather in Figueres

Spain     42°15′56″N   2°57′29″E
temp.,
°C
wind,
m/s
gust,
m/s
humid.,
%
clouds,
%
prec.,
mm/h
press.,
hPa
HPBL,
m
16 may, sun
sun1623:00+14n227398 0.0 101329
02:00+13wsw2275100 0.0 101215
05:00+13nw1174100 0.0 101011
08:00+15wnw1170100 0.0 101063
11:00+20sse2156100 0.0 1010623
14:00+23ese4354100 0.0 1010733
17:00+16ne3683100 0.3 1011266
20:00+16nnw2580100 0.3 1011273
17 may, mon
mon1723:00+14wnw2375100 0.1 1013147
02:00+14wnw2373100 0.2 1014124
05:00+12w2283100 0.3 101564
08:00+12wsw2288100 0.8 101782
11:00+13ssw1280100 0.1 1019118
14:00+14s2277100 0.2 1019278
17:00+17ssw2264100 0.0 1018725
20:00+16wsw127233 0.0 1019193
18 may, tue
tue1823:00+12nw228530 0.0 102013
02:00+11wnw228198 0.0 102014
05:00+10nnw1180100 0.0 102010
08:00+13ne1170100 0.0 102064
11:00+15se326696 0.0 1020699
14:00+15e2264100 0.0 1020612
17:00+12s2288100 0.7 102083
20:00+11ssw1290100 0.8 102053
19 may, wed
wed1923:00+12wsw2388100 0.0 102173
02:00+12wnw2382100 0.3 102169
05:00+12wnw2282100 0.4 102133
08:00+11nw2282100 0.6 102151
11:00+12nw2386100 0.4 1022128
14:00+11nnw1391100 1.7 1022135
17:00+11sw4596100 2.3 1020274
20:00+12w248681 3.9 1021191
20 may, thu
thu2023:00+11nnw7126441 0.0 1024417
02:00+10nnw58610 0.0 1024226
05:00+9nnw59580 0.0 1024338
08:00+10nw49580 0.0 1025545
11:00+19nnw814295 0.0 10251766
14:00+21n1012275 0.0 10241600
17:00+22n9112915 0.0 10221087
20:00+18nnw4643100 0.0 1023157